User: anonymous   Login
Location: Unspecified
(0.0000°N, 0.0000°E)
Time: 04:25:22
(UTC+00:00)
Language:

N. Korean satellite - Orbit

View from above orbital plane
View from above orbital plane
View from above satellite
View from above satellite

Ground track
Ground track

The orbit data is extracted from the following two-line orbital elements,

1 39026U 12072A   15059.08930484  .00006697  00000-0  32031-3 0  9998
2 39026 097.2977 094.4001 0046534 256.7366 102.8677 15.18342702122142
Epoch (UTC): 28 February 2015 02:08:35
Eccentricity: 0.0046534
inclination: 97.2977°
perigee height: 479 km
apogee height: 543 km
right ascension of ascending node: 94.4001°
argument of perigee: 256.7366°
revolutions per day: 15.18342702
mean anomaly at epoch: 102.8677°
orbit number at epoch: 12214

The dashed part of the orbit path shows where the satellite is in the earth's shadow,  

DLR